Starlink 11531

operational
NORAD ID: 62841 Int'l Des: 2025-019 Owner: SPXS Country: US Constellation: starlink
LEOCIRCULAR

About Starlink 11531

Description loading...

Live Position

Loading 3D Globe...

Upcoming Passes

Altitude History

Altitude vs Time

uPlot chart will show altitude changes over time

Two-Line Element Set

1 62841U 25019N 26048.43625935 .00224222 00000-0 17018-2 0 9998
2 62841 43.0014 68.2192 0001214 278.5458 81.5272 15.70873115 60694
Epoch: Feb 17, 2026 • Age: 13 hours

Current Status

Altitude 359.1 km
Velocity 7.70 km/s
Sub-Earth Point 40.84°N, 42.98°E
Launch Date Jan 27, 2025
Age 1 years
Type internet

Technical Details

Classification Payload
Mass 960.00 kg
Dry Mass 910.00 kg
Total Mass 960.00 kg
Length 0.30 m
Diameter 4.10 m
Span 29.00 m
Shape Box + pan
Manufacturer SPXS
Bus Type Starlink V2MD
Phase Status In Orbit
Owner/State SPXS/US

Large Constellations

Loading constellations...